GW5470 Weather Reports


time (UTC)temp
C
wind
direction
speed
KPH
gust
KPH
rain 1hr
cm
rain 24hr
cm
rain mn
cm
humidity
%
barometer
mb
20260903143746 31 197 0.0 0.0 0.00 0.00 0.00 67 1018.0
20260903143242 31 177 0.0 0.0 0.00 0.00 0.00 70 1017.8
20260903142737 31 206 1.6 1.6 0.00 0.00 0.00 68 1018.0
20260903142234 30 147 1.6 1.6 0.00 0.00 0.00 70 1018.0
20260903141729 30 353 3.2 4.8 0.00 0.00 0.00 73 1018.0
20260903141225 30 130 3.2 3.2 0.00 0.00 0.00 73 1018.0
20260903140720 30 201 1.6 1.6 0.00 0.00 0.00 73 1017.8
20260903140215 30 202 3.2 3.2 0.00 0.00 0.00 73 1017.9
20260903135710 29 198 1.6 1.6 0.00 0.00 0.00 74 1018.1
20260903135206 28 198 0.0 0.0 0.00 0.00 0.00 78 1017.8
20260903134704 28 204 0.0 0.0 0.00 0.00 0.00 76 1018.0
20260903134201 28 172 0.0 0.0 0.00 0.00 0.00 80 1018.2
20260903133659 28 172 0.0 0.0 0.00 0.00 0.00 83 1018.1
20260903133155 27 175 0.0 0.0 0.00 0.00 0.00 85 1018.1
20260903132654 27 175 0.0 0.0 0.00 0.00 0.00 88 1018.2
20260903132154 26 186 1.6 1.6 0.00 0.00 0.00 88 1018.2
20260903131649 25 186 1.6 1.6 0.00 0.00 0.00 92 1018.3
20260903131149 25 186 1.6 1.6 0.00 0.00 0.00 93 1018.2
20260903130644 24 190 0.0 0.0 0.00 0.00 0.00 96 1018.3
20260903130144 24 194 0.0 0.0 0.00 0.00 0.00 99 1018.4
20260903125642 23 197 0.0 0.0 0.00 0.00 0.00 99 1018.5
20260903125137 23 199 0.0 0.0 0.00 0.00 0.00 99 1018.3
20260903124637 23 201 0.0 0.0 0.00 0.00 0.00 99 1018.4
20260903124131 23 201 0.0 0.0 0.00 0.00 0.00 99 1018.3
20260903123631 23 201 0.0 0.0 0.00 0.00 0.00 99 1018.2
20260903123130 22 201 0.0 0.0 0.00 0.00 0.00 99 1018.5
20260903122630 22 201 0.0 0.0 0.00 0.00 0.00 99 1018.5
20260903122124 21 201 0.0 0.0 0.00 0.00 0.00 99 1018.4
20260903121623 21 201 0.0 0.0 0.00 0.00 0.00 99 1018.4
20260903121119 21 201 0.0 0.0 0.00 0.00 0.00 99 1018.4
20260903120618 21 201 0.0 0.0 0.00 0.00 0.00 99 1018.4
20260903120113 21 201 0.0 0.0 0.00 0.00 0.00 99 1018.5
20260903115611 21 201 0.0 0.0 0.00 0.00 0.00 99 1018.4
20260903115106 21 201 0.0 0.0 0.00 0.00 0.00 99 1018.3
20260903114601 21 201 0.0 0.0 0.00 0.00 0.00 99 1018.4
20260903114057 20 201 0.0 0.0 0.00 0.00 0.00 99 1018.3
20260903113553 20 201 0.0 0.0 0.00 0.00 0.00 99 1018.4
20260903113049 20 201 0.0 0.0 0.00 0.00 0.00 99 1018.5
20260903112544 20 201 0.0 0.0 0.00 0.00 0.00 99 1018.0
20260903112044 20 201 0.0 0.0 0.00 0.00 0.00 99 1018.1
20260903111543 20 201 0.0 0.0 0.00 0.00 0.00 99 1018.1
20260903111039 20 201 0.0 0.0 0.00 0.00 0.00 99 1018.2
20260903110535 20 201 0.0 0.0 0.00 0.00 0.00 99 1018.1
20260903110030 20 201 0.0 0.0 0.00 0.00 0.00 99 1017.8
20260903105525 20 201 0.0 0.0 0.00 0.00 0.00 99 1017.8
20260903105020 20 201 0.0 0.0 0.00 0.00 0.00 99 1017.8
20260903104519 20 201 0.0 0.0 0.00 0.00 0.00 99 1017.8
20260903104015 20 201 0.0 0.0 0.00 0.00 0.00 99 1017.7
20260903103511 20 201 0.0 0.0 0.00 0.00 0.00 99 1017.7
20260903103007 20 201 0.0 0.0 0.00 0.00 0.00 99 1017.6
20260903102502 20 201 0.0 0.0 0.00 0.00 0.00 99 1017.8
20260903102001 20 201 0.0 0.0 0.00 0.00 0.00 99 1017.6
20260903101455 21 201 0.0 0.0 0.00 0.00 0.00 99 1017.7
20260903100951 20 201 0.0 0.0 0.00 0.00 0.00 99 1017.5
20260903100446 20 201 0.0 0.0 0.00 0.00 0.00 99 1017.4
20260903095943 20 201 0.0 0.0 0.00 0.00 0.00 99 1017.3
20260903095438 21 201 0.0 0.0 0.00 0.00 0.00 99 1017.2
20260903094933 20 201 0.0 0.0 0.00 0.00 0.00 99 1017.3
20260903094427 21 201 0.0 0.0 0.00 0.00 0.00 99 1017.2
20260903093924 21 201 0.0 0.0 0.00 0.00 0.00 99 1017.1
20260903093423 21 201 0.0 0.0 0.00 0.00 0.00 99 1017.2
20260903092919 21 201 0.0 0.0 0.00 0.00 0.00 99 1017.2
20260903092414 21 201 0.0 0.0 0.00 0.00 0.00 99 1017.3
20260903091912 21 201 0.0 0.0 0.00 0.00 0.00 99 1017.3
20260903091406 21 201 0.0 0.0 0.00 0.00 0.00 99 1017.4
20260903090901 21 201 0.0 0.0 0.00 0.00 0.00 99 1017.4
20260903090356 21 201 0.0 0.0 0.00 0.00 0.00 99 1017.2
20260903085854 21 201 0.0 0.0 0.00 0.00 0.00 99 1017.3
20260903085353 21 201 0.0 0.0 0.00 0.00 0.00 99 1017.1
20260903084853 21 201 0.0 0.0 0.00 0.00 0.00 99 1017.4
20260903084352 21 201 0.0 0.0 0.00 0.00 0.00 99 1017.3
20260903083847 21 201 0.0 0.0 0.00 0.00 0.00 99 1017.3
20260903083343 21 201 0.0 0.0 0.00 0.00 0.00 99 1017.3
20260903082842 21 201 0.0 0.0 0.00 0.00 0.00 99 1017.4
20260903082337 21 201 0.0 0.0 0.00 0.00 0.00 99 1017.2
20260903081832 21 201 0.0 0.0 0.00 0.00 0.00 99 1017.2
20260903081327 21 201 0.0 0.0 0.00 0.00 0.00 99 1017.4
20260903080824 21 201 0.0 0.0 0.00 0.00 0.00 99 1017.5
20260903080321 21 201 0.0 0.0 0.00 0.00 0.00 99 1017.3
20260903075820 21 201 0.0 0.0 0.00 0.00 0.00 99 1017.3
20260903075315 21 201 0.0 0.0 0.00 0.00 0.00 99 1017.3
20260903074815 21 201 0.0 0.0 0.00 0.00 0.00 99 1017.2
20260903074310 21 201 0.0 0.0 0.00 0.00 0.00 99 1017.2
20260903073805 21 201 0.0 0.0 0.00 0.00 0.00 99 1017.3
20260903073306 21 201 0.0 0.0 0.00 0.00 0.00 99 1017.4
20260903072801 21 201 0.0 0.0 0.00 0.00 0.00 99 1017.4
20260903072258 21 201 0.0 0.0 0.00 0.00 0.00 99 1017.3
20260903071755 21 201 0.0 0.0 0.00 0.00 0.00 99 1017.3
20260903071250 21 201 0.0 0.0 0.00 0.00 0.00 99 1017.4
20260903070749 21 201 0.0 0.0 0.00 0.00 0.00 99 1017.4
20260903070245 21 201 0.0 0.0 0.00 0.00 0.00 99 1017.4
20260903065740 21 201 0.0 0.0 0.00 0.00 0.00 99 1017.2
20260903065240 21 201 0.0 0.0 0.00 0.00 0.00 99 1017.4
20260903064738 21 201 0.0 0.0 0.00 0.00 0.00 99 1017.4
20260903064234 21 201 0.0 0.0 0.00 0.00 0.00 99 1017.4
20260903063730 21 201 0.0 0.0 0.00 0.00 0.00 99 1017.4
20260903063225 21 201 0.0 0.0 0.00 0.00 0.00 99 1017.4
20260903062721 21 201 0.0 0.0 0.00 0.00 0.00 99 1017.4
20260903062220 22 201 0.0 0.0 0.00 0.00 0.00 99 1017.6
20260903061717 22 201 0.0 0.0 0.00 0.00 0.00 99 1017.5
20260903061216 22 201 0.0 0.0 0.00 0.00 0.00 99 1017.4
20260903060712 21 201 0.0 0.0 0.00 0.00 0.00 99 1017.4
20260903060211 21 201 0.0 0.0 0.00 0.00 0.00 99 1017.4
20260903055709 22 201 0.0 0.0 0.00 0.00 0.00 99 1017.3
20260903055207 22 201 0.0 0.0 0.00 0.00 0.00 99 1017.5
20260903054702 22 201 0.0 0.0 0.00 0.00 0.00 99 1017.5
20260903054158 22 201 0.0 0.0 0.00 0.00 0.00 99 1017.3
20260903053654 22 201 0.0 0.0 0.00 0.00 0.00 99 1017.2
20260903053149 22 201 0.0 0.0 0.00 0.00 0.00 99 1017.4
20260903052645 22 201 0.0 0.0 0.00 0.00 0.00 99 1017.3
20260903052141 22 201 0.0 0.0 0.00 0.00 0.00 99 1017.3
20260903051635 22 201 0.0 0.0 0.00 0.00 0.00 99 1017.2
20260903051131 22 201 0.0 0.0 0.00 0.00 0.00 99 1017.2
20260903050625 22 201 0.0 0.0 0.00 0.00 0.00 99 1017.0
20260903050121 22 201 0.0 0.0 0.00 0.00 0.00 99 1016.8
20260903045620 22 201 0.0 0.0 0.00 0.00 0.00 99 1016.9
20260903045117 22 201 0.0 0.0 0.00 0.00 0.00 99 1016.7
20260903044612 22 201 0.0 0.0 0.00 0.00 0.00 99 1016.8
20260903044108 22 201 0.0 0.0 0.00 0.00 0.00 99 1016.8
20260903043603 22 201 0.0 0.0 0.00 0.00 0.00 99 1016.8
20260903043102 22 201 0.0 0.0 0.00 0.00 0.00 99 1016.7
20260903042558 22 201 0.0 0.0 0.00 0.00 0.00 99 1016.8
20260903042053 22 201 0.0 0.0 0.00 0.00 0.00 99 1016.8
20260903041549 22 201 0.0 0.0 0.00 0.00 0.00 99 1016.8
20260903041045 22 201 0.0 0.0 0.00 0.00 0.00 99 1016.7
20260903040543 22 201 0.0 0.0 0.00 0.00 0.00 99 1016.9
20260903040040 22 201 0.0 0.0 0.00 0.00 0.00 99 1016.8
20260903035540 22 201 0.0 0.0 0.00 0.00 0.00 99 1016.9
20260903035036 22 201 0.0 0.0 0.00 0.00 0.00 99 1017.1
20260903034532 22 201 0.0 0.0 0.00 0.00 0.00 99 1017.0
20260903034026 22 201 0.0 0.0 0.00 0.00 0.00 99 1017.0
20260903033521 22 201 0.0 0.0 0.00 0.00 0.00 99 1017.0
20260903033017 22 201 0.0 0.0 0.00 0.00 0.00 99 1017.0
20260903032512 22 201 0.0 0.0 0.00 0.00 0.00 99 1016.9
20260903032007 23 201 0.0 0.0 0.00 0.00 0.00 99 1016.9
20260903031506 23 201 0.0 0.0 0.00 0.00 0.00 99 1017.1
20260903031001 23 201 0.0 0.0 0.00 0.00 0.00 99 1017.1
20260903030457 23 201 0.0 0.0 0.00 0.00 0.00 99 1017.2
20260903025953 23 201 0.0 0.0 0.00 0.00 0.00 99 1017.1
20260903025449 23 201 0.0 0.0 0.00 0.00 0.00 99 1017.3
20260903024944 23 201 0.0 0.0 0.00 0.00 0.00 99 1017.2
20260903024443 23 201 0.0 0.0 0.00 0.00 0.00 99 1017.2
20260903023937 23 201 0.0 0.0 0.00 0.00 0.00 99 1017.3
20260903023434 23 201 0.0 0.0 0.00 0.00 0.00 99 1017.2
20260903022929 23 201 0.0 0.0 0.00 0.00 0.00 99 1017.2
20260903022428 23 201 0.0 0.0 0.00 0.00 0.00 99 1017.3
20260903021927 23 201 0.0 0.0 0.00 0.00 0.00 99 1017.3
20260903021423 23 201 0.0 0.0 0.00 0.00 0.00 99 1017.5
20260903020922 23 201 0.0 0.0 0.00 0.00 0.00 99 1017.2
20260903020419 23 201 0.0 0.0 0.00 0.00 0.00 99 1017.6
20260903015918 23 201 0.0 0.0 0.00 0.00 0.00 99 1017.4
20260903015414 23 201 0.0 0.0 0.00 0.00 0.00 98 1017.4
20260903014909 24 201 0.0 0.0 0.00 0.00 0.00 98 1017.3
20260903014409 23 201 0.0 0.0 0.00 0.00 0.00 98 1017.4
20260903013904 24 201 0.0 0.0 0.00 0.00 0.00 98 1017.3
20260903013403 24 201 0.0 0.0 0.00 0.00 0.00 98 1017.2
20260903012903 24 201 0.0 0.0 0.00 0.00 0.00 98 1017.4
20260903012402 24 201 0.0 0.0 0.00 0.00 0.00 98 1017.3
20260903011901 24 201 0.0 0.0 0.00 0.00 0.00 98 1017.2
20260903011356 24 201 0.0 0.0 0.00 0.00 0.00 98 1017.1
20260903010851 25 201 0.0 0.0 0.00 0.00 0.00 98 1017.0
20260903010346 25 201 0.0 0.0 0.00 0.00 0.00 97 1017.0
20260903005844 25 201 0.0 0.0 0.00 0.00 0.00 97 1017.1
20260903005340 25 201 0.0 0.0 0.00 0.00 0.00 97 1016.8
20260903004836 25 201 0.0 0.0 0.00 0.00 0.00 97 1016.9
20260903004331 25 201 0.0 0.0 0.00 0.00 0.00 97 1016.9
20260903003827 25 201 0.0 0.0 0.00 0.00 0.00 96 1016.9
20260903003321 25 201 0.0 0.0 0.00 0.00 0.00 96 1016.8
20260903002821 25 201 0.0 0.0 0.00 0.00 0.00 96 1016.8
20260903002321 25 201 0.0 0.0 0.00 0.00 0.00 96 1016.7
20260903001816 25 201 0.0 0.0 0.00 0.00 0.00 95 1016.7
20260903001311 25 201 0.0 0.0 0.00 0.00 0.00 95 1016.5
20260903000811 26 201 0.0 0.0 0.00 0.00 0.00 94 1016.6
20260903000306 26 201 0.0 0.0 0.00 0.00 0.00 93 1016.5
20260902235804 26 201 0.0 0.0 0.00 0.00 0.00 93 1016.6
20260902235300 26 201 0.0 0.0 0.00 0.00 0.00 92 1016.6
20260902234800 26 201 0.0 0.0 0.00 0.00 0.00 91 1016.5
20260902234300 26 201 0.0 0.0 0.00 0.00 0.00 90 1016.5
20260902233759 27 201 0.0 0.0 0.00 0.00 0.00 90 1016.6
20260902233259 27 201 0.0 0.0 0.00 0.00 0.00 89 1016.5
20260902232758 27 201 0.0 0.0 0.00 0.00 0.00 89 1016.6
20260902232258 27 201 0.0 0.0 0.00 0.00 0.00 88 1016.6
20260902231757 27 201 0.0 0.0 0.00 0.00 0.00 87 1016.8
20260902231253 27 201 0.0 0.0 0.00 0.00 0.00 87 1016.5
20260902230753 27 201 0.0 0.0 0.00 0.00 0.00 85 1016.7
20260902230252 28 201 0.0 0.0 0.00 0.00 0.00 84 1016.7
20260902225746 28 201 0.0 0.0 0.00 0.00 0.00 84 1016.7
20260902225241 28 201 0.0 0.0 0.00 0.00 0.00 82 1016.6
20260902224740 28 201 0.0 0.0 0.00 0.00 0.00 82 1016.8
20260902224236 29 201 0.0 0.0 0.00 0.00 0.00 80 1016.7
20260902223732 29 201 0.0 0.0 0.00 0.00 0.00 80 1016.8
20260902223231 29 201 0.0 0.0 0.00 0.00 0.00 80 1016.9
20260902222731 30 201 0.0 0.0 0.00 0.00 0.00 78 1016.6
20260902222230 30 201 0.0 1.6 0.00 0.00 0.00 75 1016.6
20260902221725 30 200 0.0 0.0 0.00 0.00 0.00 74 1016.8
20260902221224 30 209 0.0 0.0 0.00 0.00 0.00 74 1016.7
20260902220720 31 209 1.6 1.6 0.00 0.00 0.00 72 1016.8
20260902220219 32 208 0.0 0.0 0.00 0.00 0.00 69 1016.9
20260902215715 32 205 0.0 1.6 0.00 0.00 0.00 70 1016.8
20260902215210 33 205 0.0 0.0 0.00 0.00 0.00 65 1016.9
20260902214707 33 205 0.0 0.0 0.00 0.00 0.00 64 1016.9
20260902214205 33 212 0.0 0.0 0.00 0.00 0.00 67 1016.9
20260902213701 33 212 0.0 0.0 0.00 0.00 0.00 62 1016.9
20260902213201 33 211 0.0 0.0 0.00 0.00 0.00 59 1016.9
20260902212655 33 191 0.0 0.0 0.00 0.00 0.00 64 1016.8
20260902212152 34 188 0.0 0.0 0.00 0.00 0.00 69 1017.0
20260902211649 34 218 0.0 0.0 0.00 0.00 0.00 63 1016.7
20260902211148 34 203 0.0 0.0 0.00 0.00 0.00 63 1017.0
20260902210648 34 210 0.0 0.0 0.00 0.00 0.00 63 1016.9
20260902210143 34 203 0.0 1.6 0.00 0.00 0.00 64 1017.0
20260902205641 34 253 1.6 1.6 0.00 0.00 0.00 56 1017.1
20260902205137 33 195 0.0 1.6 0.00 0.00 0.00 62 1017.1
20260902204632 35 234 1.6 3.2 0.00 0.00 0.00 56 1017.1
20260902204127 34 224 3.2 4.8 0.00 0.00 0.00 58 1017.1
20260902203622 35 187 0.0 1.6 0.00 0.00 0.00 53 1017.2
20260902203121 35 224 0.0 1.6 0.00 0.00 0.00 54 1017.3
20260902202617 35 190 0.0 0.0 0.00 0.00 0.00 55 1017.3
20260902202114 35 204 0.0 1.6 0.00 0.00 0.00 59 1017.4
20260902201609 35 215 1.6 1.6 0.00 0.00 0.00 60 1017.3
20260902201108 35 206 0.0 1.6 0.00 0.00 0.00 58 1017.5
20260902200603 34 212 0.0 1.6 0.00 0.00 0.00 59 1017.5
20260902200059 35 190 1.6 1.6 0.00 0.00 0.00 58 1017.6
20260902195555 34 206 0.0 1.6 0.00 0.00 0.00 64 1017.5
20260902195054 35 182 1.6 3.2 0.00 0.00 0.00 56 1017.7
20260902194553 34 205 0.0 0.0 0.00 0.00 0.00 57 1017.5
20260902194049 35 208 1.6 1.6 0.00 0.00 0.00 57 1017.7
20260902193545 35 217 0.0 1.6 0.00 0.00 0.00 54 1017.9
20260902193044 34 157 3.2 4.8 0.00 0.00 0.00 57 1018.0
20260902192543 33 194 1.6 1.6 0.00 0.00 0.00 61 1018.0
20260902192042 33 196 0.0 1.6 0.00 0.00 0.00 60 1018.1
20260902191538 33 196 0.0 0.0 0.00 0.00 0.00 68 1018.1
20260902191032 32 183 0.0 0.0 0.00 0.00 0.00 67 1018.2
20260902190527 33 181 0.0 0.0 0.00 0.00 0.00 66 1018.1
20260902190023 33 195 1.6 1.6 0.00 0.00 0.00 60 1018.2
20260902185519 34 197 1.6 1.6 0.00 0.00 0.00 57 1018.3
20260902185015 33 211 1.6 1.6 0.00 0.00 0.00 60 1018.0
20260902184509 33 198 0.0 1.6 0.00 0.00 0.00 60 1018.4
20260902184004 35 195 0.0 0.0 0.00 0.00 0.00 59 1018.1
20260902183501 35 205 1.6 1.6 0.00 0.00 0.00 55 1018.2
20260902182957 35 203 0.0 0.0 0.00 0.00 0.00 57 1018.2
20260902182453 35 220 1.6 3.2 0.00 0.00 0.00 56 1018.1
20260902181948 34 190 0.0 0.0 0.00 0.00 0.00 59 1018.3
20260902181444 34 173 6.4 6.4 0.00 0.00 0.00 57 1018.4
20260902180938 35 207 0.0 0.0 0.00 0.00 0.00 58 1018.3
20260902180434 34 189 1.6 3.2 0.00 0.00 0.00 64 1018.4
20260902175930 33 172 0.0 1.6 0.00 0.00 0.00 62 1018.3
20260902175424 34 204 0.0 0.0 0.00 0.00 0.00 57 1018.5
20260902174920 34 329 4.8 6.4 0.00 0.00 0.00 57 1018.4
20260902174417 34 200 0.0 1.6 0.00 0.00 0.00 57 1018.4
20260902173912 33 257 4.8 4.8 0.00 0.00 0.00 59 1018.6
20260902173412 33 203 0.0 0.0 0.00 0.00 0.00 59 1018.5
20260902172912 33 209 1.6 1.6 0.00 0.00 0.00 61 1018.5
20260902172411 33 316 4.8 4.8 0.00 0.00 0.00 59 1018.7
20260902171906 33 173 1.6 3.2 0.00 0.00 0.00 59 1018.7
20260902171402 33 65 4.8 4.8 0.00 0.00 0.00 60 1018.7
20260902170858 33 203 1.6 1.6 0.00 0.00 0.00 61 1018.9
20260902170353 33 201 0.0 0.0 0.00 0.00 0.00 63 1019.0
20260902165848 33 185 1.6 3.2 0.00 0.00 0.00 67 1019.1
20260902165347 32 156 1.6 3.2 0.00 0.00 0.00 63 1019.1
20260902164843 32 191 0.0 1.6 0.00 0.00 0.00 64 1018.9
20260902164338 33 199 3.2 3.2 0.00 0.00 0.00 62 1018.9
20260902163836 32 305 6.4 9.7 0.00 0.00 0.00 63 1019.2
20260902163331 32 187 1.6 1.6 0.00 0.00 0.00 64 1019.2
20260902162830 33 194 0.0 0.0 0.00 0.00 0.00 70 1019.2
20260902162325 32 186 1.6 1.6 0.00 0.00 0.00 65 1019.5
20260902161824 32 294 1.6 1.6 0.00 0.00 0.00 63 1019.5
20260902161320 32 229 1.6 3.2 0.00 0.00 0.00 67 1019.4
20260902160816 32 190 1.6 3.2 0.00 0.00 0.00 65 1019.5
20260902160311 32 203 0.0 1.6 0.00 0.00 0.00 65 1019.5
20260902155809 32 205 0.0 1.6 0.00 0.00 0.00 62 1019.8
20260902155308 33 185 1.6 1.6 0.00 0.00 0.00 62 1019.8
20260902154803 32 192 1.6 1.6 0.00 0.00 0.00 65 1019.8
20260902154259 32 127 4.8 4.8 0.00 0.00 0.00 68 1020.0
20260902153757 31 139 3.2 4.8 0.00 0.00 0.00 68 1019.9
20260902153252 32 178 0.0 1.6 0.00 0.00 0.00 68 1019.9
20260902152748 31 188 0.0 1.6 0.00 0.00 0.00 70 1020.0
20260902152244 31 156 1.6 1.6 0.00 0.00 0.00 68 1020.0
20260902151739 31 214 1.6 1.6 0.00 0.00 0.00 70 1020.1
20260902151234 30 170 0.0 1.6 0.00 0.00 0.00 68 1020.1
20260902150729 31 190 0.0 0.0 0.00 0.00 0.00 68 1020.1
20260902150226 31 195 0.0 1.6 0.00 0.00 0.00 71 1020.2
20260902145724 31 200 0.0 0.0 0.00 0.00 0.00 73 1019.9
20260902145224 30 167 1.6 3.2 0.00 0.00 0.00 72 1020.1
20260902144720 29 188 0.0 0.0 0.00 0.00 0.00 77 1020.0
20260902144216 29 183 1.6 1.6 0.00 0.00 0.00 74 1020.1